[[{"header":{"parameterUnit":"m.s-1","parameterCategory":1,"la1":30.2991,"la2":30.254,"lo1":-89.0895,"lo2":-89.0444,"dy":0.0017,"dx":0.0017,"nx":28,"ny":28,"refTime":"2023-04-23T21:00:00:Z","depth":0,"parameterNumber":2,"parameterNumberName":"U-component_of_WINDS"},"data":[0,0,0,0,0,0,0,0,0,0,0,0,0,0,0,0,0,0,0,0,0,0,0,0,0,0,0,0,0,0,0,0,0,0,0,0,0,0,0,0,0,0,0,0,0,0,0,0,0,0,0,0,0,0,0,0,0,0,-3.9816,-3.9815,0,-3.9731,-3.973,-3.9729,-3.956,-3.9557,-3.9554,-3.9551,-3.9468,-3.9468,-3.9469,0,0,0,0,0,0,0,0,0,0,0,0,0,-3.9838,-3.9838,-3.9816,-3.9815,-3.9814,-3.9732,-3.973,-3.9729,-3.9561,-3.9557,-3.9553,-3.9549,-3.9467,-3.9468,-3.9469,0,0,0,0,0,0,0,0,0,0,0,0,0,-3.9798,-3.9838,-3.9816,-3.972,-3.9711,-3.9732,-3.973,-3.9729,-3.9562,-3.9557,-3.9552,-3.9547,-3.9467,-3.9468,-3.947,-3.9579,0,0,-3.9474,-3.9474,0,0,0,0,0,0,0,0,-3.9801,-3.9798,-3.9735,-3.9727,-3.9716,-3.9651,-3.9707,-3.9679,-3.9563,-3.9619,-3.955,-3.9545,-3.9533,-3.9529,-3.9524,-3.9575,-3.9571,-3.9474,-3.9475,-3.9475,-3.9476,0,0,0,0,0,0,0,-3.9804,-3.9801,-3.9783,-3.9735,-3.9723,-3.9683,-3.9672,-3.9701,-3.9605,-3.9613,-3.9601,-3.9593,-3.9527,-3.9523,-3.9521,-3.957,-3.9474,-3.9475,-3.9476,-3.9476,-3.9709,-3.9714,0,0,0,0,0,0,-3.982,-3.9804,-3.9785,-3.978,-3.9747,-3.9687,-3.9674,-3.9677,-3.9604,-3.9588,-3.9597,-3.9585,-3.9523,-3.9519,-3.9517,-3.9641,-3.9475,-3.9477,-3.9477,-3.9704,-3.971,-3.9716,0,0,0,0,0,0,-3.9821,-3.982,-3.9789,-3.9789,-3.9781,-3.9692,-3.9697,-3.9678,-3.9674,-3.9592,-3.9575,-3.9611,-3.9519,-3.9515,-3.9565,-3.9636,-3.9477,-3.9478,-3.9697,-3.9706,-3.9713,-3.9889,0,0,0,0,0,0,-3.9822,-3.9821,-3.986,-3.9791,-3.9782,-3.9837,-3.9701,-3.968,-3.9676,-3.966,-3.96,-3.9585,-3.9515,-3.9564,-3.9566,-3.9635,-3.9479,-3.969,-3.9701,-3.971,-3.9877,-3.9903,-3.9924,0,0,0,0,0,-3.9824,-3.9914,-3.9863,-3.9862,-3.9829,-3.9841,-3.9836,-3.9752,-3.9683,-3.9722,-3.967,-3.9587,-3.9628,-3.957,-3.9572,-3.9642,-3.9686,-3.9698,-3.971,-3.9866,-3.9897,-3.9924,0,0,0,0,0,0,-3.9994,-3.9903,-3.9845,-3.9915,-3.9887,-3.9813,-3.9859,-3.9788,-3.978,-3.9765,-3.9662,-3.965,-3.9714,-3.9683,-3.962,-3.9745,-3.9644,-3.9657,-3.9762,-3.9791,-3.9815,-3.9821,-3.9481,0,0,0,0,0,-4.004,-4.0056,-3.9976,-4.0045,-4.0034,-3.995,-3.9952,-3.989,-3.9857,-3.9845,-3.9796,-3.9769,-3.9775,-3.9782,-3.9783,-3.9872,-3.9858,-3.9921,-3.9945,-3.9965,-3.9977,-4.0024,-4.0052,-3.9755,-3.9755,-3.9755,0,0,-4.0135,-4.0087,-4.0103,-4.0078,-4.0049,-4.007,-3.9941,-3.9968,-3.9983,-3.9849,-3.9892,-3.9857,-3.982,-3.989,-3.9919,-3.9866,-4.0057,-3.9981,-3.9997,-3.9998,-4.0039,-4.0068,-4.0093,-3.9764,-3.9762,-3.9761,0,0,-4.0317,-4.0282,-4.0337,-4.0311,-4.0268,-4.0212,-4.0226,-4.0163,-4.0133,-4.0176,-4.0077,-4.0094,-4.0107,-4.0085,-4.0076,-4.0255,-4.0179,-4.0259,-4.0382,-4.0429,-4.0453,-4.0473,-4.0538,-4.0562,-4.0271,-4.0272,-4.0272,0,-4.044,-4.0466,-4.0374,-4.0408,-4.0401,-4.0281,-4.0337,-4.0317,-4.0278,-4.0277,-4.0218,-4.0234,-4.02,-4.0265,-4.0309,-4.0305,-4.0319,-4.0264,-4.0456,-4.0476,-4.0493,-4.0554,-4.0578,-4.0282,-4.028,-4.0279,-4.0278,0,-4.062,-4.064,-4.0689,-4.0654,-4.0653,-4.0698,-4.0615,-4.0626,-4.0565,-4.0516,-4.0563,-4.0519,-4.051,-4.0521,-4.0462,-4.0579,-4.0547,-4.0475,-4.0371,-4.0533,-4.0588,-4.0611,-4.0296,-4.0292,-4.0289,-4.0287,0,0,-4.0904,-4.082,-4.084,-4.0824,-4.077,-4.0784,-4.0826,-4.0816,-4.0828,-4.0807,-4.0839,-4.0855,-4.0788,-4.0778,-4.0716,-4.0757,-4.0903,-4.0679,-4.0676,-4.0723,-4.1031,-4.1086,-4.1114,-4.0853,-4.0857,-4.086,-4.1034,0,-4.1075,-4.1138,-4.1058,-4.1139,-4.1158,-4.1046,-4.1082,-4.1055,-4.1011,-4.1022,-4.0974,-4.0987,-4.0897,-4.0891,-4.0927,-4.0878,-4.0964,-4.0864,-4.0884,-4.0886,-4.0896,-4.1142,-4.1199,-4.1365,-4.1055,-4.1058,-4.1061,0,-4.1281,-4.1269,-4.1352,-4.1295,-4.13,-4.1334,-4.132,-4.1332,-4.1299,-4.1265,-4.1256,-4.1182,-4.122,-4.1121,-4.1174,-4.1108,-4.1112,-4.109,-4.1094,-4.1092,-4.0983,-4.1147,-4.1415,-4.1441,-4.1094,-4.1091,-4.1089,0,-4.1481,-4.1486,-4.1537,-4.1526,-4.1461,-4.1488,-4.1462,-4.1425,-4.1425,-4.1415,-4.1414,-4.1409,-4.1407,-4.1405,-4.1333,-4.1267,-4.1396,-4.129,-4.137,-4.1372,-4.1401,-4.14,-4.1674,-4.1405,-4.1404,-4.1404,-4.1403,0,-4.1679,-4.1734,-4.1626,-4.1657,-4.1717,-4.1627,-4.1689,-4.1652,-4.1621,-4.1645,-4.1549,-4.1574,-4.1477,-4.1492,-4.1437,-4.149,-4.1489,-4.1464,-4.1448,-4.1472,-4.1476,-4.1472,-4.1459,-4.141,-4.1409,-4.1408,-4.1406,0,-4.1911,-4.1841,-4.1889,-4.1824,-4.1809,-4.1857,-4.1802,-4.1829,-4.1781,-4.1812,-4.1815,-4.1739,-4.1752,-4.1681,-4.1681,-4.1644,-4.1725,-4.169,-4.1736,-4.1725,-4.1809,-4.1802,-4.209,-4.2124,-4.1834,-4.1837,-4.1839,0,-4.2042,-4.2082,-4.2022,-4.203,-4.201,-4.2025,-4.2025,-4.194,-4.1944,-4.1913,-4.1945,-4.195,-4.1949,-4.1977,-4.1923,-4.1924,-4.1888,-4.1989,-4.1888,-4.1911,-4.189,-4.1889,-4.1893,-4.201,-4.2014,-4.2017,-4.2019,0,-4.2281,-4.2245,-4.2248,-4.2241,-4.2244,-4.2234,-4.2218,-4.2232,-4.2139,-4.215,-4.2162,-4.2162,-4.2163,-4.2171,-4.2161,-4.2137,-4.2064,-4.2052,-4.207,-4.2095,-4.212,-4.2108,-4.1794,-4.2045,-4.2043,-4.2041,-4.2039,-4.2038,-4.2466,-4.2497,-4.2461,-4.2469,-4.2448,-4.2436,-4.2459,-4.2414,-4.2422,-4.2416,-4.2366,-4.2388,-4.2358,-4.2337,-4.2321,-4.2338,-4.229,-4.2317,-4.2324,-4.2332,-4.2347,-4.2118,-4.2336,-4.2335,-4.2335,-4.2334,-4.2333,0,-4.2701,-4.2672,-4.2681,-4.2661,-4.2669,-4.2599,-4.2579,-4.259,-4.2611,-4.2588,-4.259,-4.2606,-4.2613,-4.2562,-4.2563,-4.2587,-4.2554,-4.2591,-4.2588,-4.2584,-4.2389,-4.2373,-4.2617,-4.2617,-4.2617,-4.2617,-4.2617,-4.2617,-4.2823,-4.2873,-4.2833,-4.2873,-4.2844,-4.2864,-4.2859,-4.2849,-4.283,-4.2852,-4.2858,-4.2824,-4.279,-4.2789,-4.2794,-4.2778,-4.2783,-4.2832,-4.2806,-4.2625,-4.2597,-4.2571,-4.2555,-4.2834,-4.2834,-4.2998,-4.3,-4.3001]},{"header":{"parameterUnit":"m.s-1","parameterCategory":1,"la1":30.2991,"la2":30.254,"lo1":-89.0895,"lo2":-89.0444,"dy":0.0017,"dx":0.0017,"nx":28,"ny":28,"refTime":"2023-04-23T21:00:00:Z","depth":0,"parameterNumber":3,"parameterNumberName":"V-component_of_WINDS"},"data":[0,0,0,0,0,0,0,0,0,0,0,0,0,0,0,0,0,0,0,0,0,0,0,0,0,0,0,0,0,0,0,0,0,0,0,0,0,0,0,0,0,0,0,0,0,0,0,0,0,0,0,0,0,0,0,0,0,0,2.5474,2.5474,0,2.5486,2.5486,2.5486,2.5524,2.5524,2.5525,2.5526,2.5535,2.5534,2.5533,0,0,0,0,0,0,0,0,0,0,0,0,0,2.5482,2.5481,2.5474,2.5474,2.5474,2.5486,2.5486,2.5486,2.5523,2.5524,2.5525,2.5526,2.5535,2.5534,2.5533,0,0,0,0,0,0,0,0,0,0,0,0,0,2.5484,2.5481,2.5474,2.5494,2.5496,2.5486,2.5486,2.5486,2.5523,2.5524,2.5526,2.5527,2.5535,2.5534,2.5533,2.5503,0,0,2.5531,2.553,0,0,0,0,0,0,0,0,2.5484,2.5484,2.5491,2.5493,2.5495,2.5505,2.5492,2.5492,2.5523,2.5513,2.5526,2.5528,2.5523,2.5524,2.5523,2.5503,2.5504,2.5531,2.553,2.553,2.553,0,0,0,0,0,0,0,2.5484,2.5483,2.5479,2.5491,2.5494,2.5502,2.5504,2.5492,2.5511,2.5514,2.5517,2.5518,2.5525,2.5524,2.5523,2.5504,2.5531,2.553,2.5529,2.5529,2.546,2.5459,0,0,0,0,0,0,2.5481,2.5483,2.5478,2.5479,2.5493,2.5501,2.5503,2.55,2.5511,2.5514,2.5517,2.5519,2.5524,2.5524,2.5524,2.5488,2.553,2.5529,2.5529,2.5461,2.546,2.5458,0,0,0,0,0,0,2.5481,2.548,2.5478,2.5482,2.5482,2.55,2.5496,2.55,2.5499,2.5513,2.5516,2.5512,2.5525,2.5525,2.5508,2.5489,2.5529,2.5528,2.5463,2.5461,2.5459,2.5418,0,0,0,0,0,0,2.5481,2.548,2.5469,2.5481,2.5482,2.5462,2.5495,2.5499,2.5498,2.5501,2.551,2.5512,2.5526,2.5509,2.5507,2.5489,2.5527,2.5465,2.5462,2.546,2.5421,2.5414,2.5409,0,0,0,0,0,2.5481,2.5456,2.5468,2.5467,2.5469,2.5461,2.5461,2.5479,2.5496,2.5485,2.5494,2.5512,2.5492,2.5507,2.5505,2.5486,2.5466,2.5463,2.546,2.5423,2.5416,2.5409,0,0,0,0,0,0,2.5439,2.5458,2.5472,2.545,2.5454,2.5467,2.5453,2.547,2.5468,2.5472,2.5493,2.5494,2.5474,2.5479,2.5495,2.5458,2.5482,2.5478,2.5455,2.5448,2.5442,2.544,2.5527,0,0,0,0,0,2.5428,2.5421,2.5438,2.5417,2.5418,2.5436,2.5433,2.5446,2.5451,2.5452,2.546,2.5463,2.5458,2.5453,2.5449,2.5422,2.5424,2.5409,2.5403,2.5398,2.5394,2.538,2.5373,2.5448,2.5448,2.5448,0,0,2.5403,2.5413,2.5407,2.5409,2.5413,2.5405,2.5436,2.5426,2.542,2.545,2.5435,2.5441,2.5446,2.5424,2.5415,2.5427,2.5374,2.5394,2.539,2.5389,2.5376,2.5369,2.5363,2.5446,2.5447,2.5447,0,0,2.5354,2.5361,2.5344,2.5349,2.5356,2.5368,2.5365,2.5376,2.5382,2.5367,2.539,2.5383,2.5373,2.5375,2.5375,2.5329,2.5345,2.5327,2.5296,2.5282,2.5276,2.5271,2.5253,2.5247,2.5323,2.5323,2.5323,0,2.5322,2.5312,2.5333,2.5322,2.5322,2.5351,2.5334,2.5337,2.5342,2.5341,2.5355,2.5344,2.5349,2.5328,2.5317,2.5316,2.5312,2.5325,2.5275,2.527,2.5266,2.5249,2.5243,2.5321,2.5321,2.5321,2.5322,0,2.5272,2.5264,2.525,2.5255,2.5254,2.5239,2.5259,2.5254,2.5269,2.5279,2.5264,2.5271,2.5269,2.5266,2.5279,2.5247,2.5254,2.5272,2.5296,2.5256,2.524,2.5234,2.5318,2.5318,2.5319,2.532,0,0,2.5194,2.5213,2.5208,2.5211,2.5222,2.5216,2.5203,2.5203,2.5198,2.5201,2.519,2.5182,2.5199,2.5199,2.5213,2.5201,2.5163,2.522,2.522,2.5208,2.5127,2.5112,2.5105,2.5175,2.5174,2.5173,2.5126,0,2.5146,2.5126,2.5146,2.5122,2.5115,2.5144,2.5133,2.5138,2.5148,2.5143,2.5153,2.5147,2.517,2.517,2.516,2.517,2.5147,2.5174,2.5163,2.5163,2.516,2.5097,2.5081,2.5037,2.5121,2.512,2.5119,0,2.5088,2.5089,2.5064,2.5078,2.5076,2.5066,2.5067,2.5062,2.5069,2.5077,2.5078,2.5096,2.5083,2.5109,2.5092,2.511,2.5108,2.5112,2.5111,2.5109,2.5137,2.5092,2.5023,2.5015,2.511,2.5111,2.5111,0,2.5032,2.5028,2.5013,2.5015,2.503,2.5023,2.5028,2.5037,2.5035,2.5036,2.5035,2.5035,2.5034,2.5033,2.505,2.5067,2.503,2.5058,2.5035,2.5035,2.5024,2.5024,2.4952,2.5026,2.5026,2.5026,2.5026,0,2.4975,2.4959,2.4988,2.4978,2.4961,2.4984,2.4966,2.4975,2.4982,2.4974,2.4999,2.4991,2.5015,2.5009,2.5022,2.5006,2.5006,2.5011,2.5014,2.5007,2.5007,2.5004,2.5007,2.5024,2.5024,2.5025,2.5025,0,2.4909,2.4928,2.4913,2.493,2.4934,2.492,2.4934,2.4926,2.4938,2.4928,2.4927,2.4946,2.4941,2.4958,2.4955,2.4964,2.494,2.4949,2.4938,2.494,2.4916,2.4917,2.4839,2.4829,2.491,2.4909,2.4909,0,2.4871,2.4859,2.4875,2.4872,2.4877,2.4872,2.4872,2.4895,2.4893,2.49,2.4891,2.4888,2.4886,2.4876,2.4889,2.4887,2.4896,2.4868,2.4895,2.4889,2.4894,2.4893,2.4892,2.4862,2.4861,2.486,2.4859,0,2.48,2.4811,2.4809,2.4811,2.481,2.4812,2.4816,2.4812,2.4837,2.4834,2.4829,2.4828,2.4827,2.4823,2.4824,2.4829,2.4848,2.4851,2.4846,2.4838,2.4831,2.4833,2.4921,2.4852,2.4853,2.4854,2.4854,2.4854,2.4746,2.4737,2.4747,2.4745,2.4751,2.4754,2.4747,2.4759,2.4756,2.4757,2.4772,2.4764,2.4772,2.4776,2.4779,2.4774,2.4786,2.4778,2.4776,2.4773,2.4769,2.4834,2.4774,2.4774,2.4774,2.4775,2.4775,0,2.4676,2.4685,2.4682,2.4688,2.4686,2.4706,2.4712,2.4708,2.4702,2.4708,2.4707,2.4702,2.4699,2.4713,2.4712,2.4704,2.4713,2.4703,2.4703,2.4703,2.4758,2.4762,2.4696,2.4696,2.4696,2.4696,2.4696,2.4696,2.4639,2.4624,2.4636,2.4625,2.4634,2.4628,2.4629,2.4632,2.4638,2.4631,2.4629,2.4639,2.4648,2.4648,2.4646,2.465,2.4648,2.4635,2.4642,2.4692,2.47,2.4707,2.4711,2.4635,2.4635,2.4587,2.4587,2.4586]}]]